#timestamp,LO_Frequency,Hit 
1503766815.7,286047006.0,N
1503766835.5,286047005.8,N
1503766855.4,286047004.7,N
1503766875.2,286047005.5,P
1503766895.0,286047000.2,N
1503766895.9,286047000.2,N
1503766915.8,286047000.9,N
1503766935.6,286047001.2,N
1503766955.4,286046999.3,N
1503766975.3,286046996.7,N
1503766995.1,286046996.7,N
1503766996.0,286046996.7,N
1503767015.8,286046999.4,N
1503767035.7,286046999.4,N
1503767055.5,286046997.7,N
1503767075.3,286046996.9,N
1503767095.1,286046998.9,N
1503767115.9,286046996.8,N
1503767135.7,286046999.2,N
1503767155.5,286046999.1,N
1503767175.4,286046998.9,N
1503767195.2,286047000.8,N
1503767215.0,286047000.6,N
1503767215.9,286047000.6,N
1503767235.8,286047000.3,N
1503767255.6,286047000.0,N
1503767275.4,286046998.5,N
1503767295.3,286047000.1,N
1503767315.1,286047002.6,N
1503767316.0,286047002.6,N
1503767335.8,286047003.8,N
1503767355.7,286047002.4,N
1503767375.5,286046999.8,N
1503767395.3,286047000.8,N
1503767415.2,286047000.5,N
1503767435.9,286047003.9,N
1503767455.7,286047002.1,N
1503767475.6,286047004.1,N
1503767495.4,286047003.8,N
1503767515.2,286047002.4,N
1503767535.0,286047002.7,N
1503767536.0,286047002.7,N
1503767555.8,286047002.1,N
1503767575.6,286047002.0,N
1503767595.4,286047002.1,N
1503767615.3,286047005.6,N
1503767635.1,286047005.2,N
1503767655.8,286047003.5,N
1503767675.7,286047001.8,N
1503767695.5,286047005.9,P
1503767715.4,286047003.5,N
1503767735.2,286047004.1,N
1503767755.0,286047005.6,P
1503767755.9,286047005.6,P
1503767775.8,286047001.7,N
1503767795.6,286047002.5,N
1503767815.4,286047001.6,N
1503767835.3,286046999.8,N
1503767855.1,286047002.6,N
1503767856.0,286047002.6,N
1503767875.8,286047002.8,N
1503767895.7,286047004.2,N
1503767915.5,286047003.9,N
1503767935.3,286047002.5,N
1503767955.1,286047002.6,N
1503767975.9,286047001.0,N
1503767995.7,286047000.6,N
1503768015.5,286046999.9,N
1503768035.4,286047000.4,N
1503768055.2,286047000.4,N
1503768075.0,286046999.9,N
1503768075.9,286046999.9,N
1503768095.8,286047001.9,N
1503768115.6,286047005.2,N
1503768135.4,286047004.6,N
1503768155.3,286047006.6,P
1503768175.1,286047001.4,N
1503768195.8,286047001.9,N
1503768215.7,286047001.6,N
1503768235.5,286047002.9,N
1503768255.3,286047003.3,N
1503768275.2,286047005.4,P
1503768295.0,286047002.2,N
1503768295.9,286047002.2,N
1503768315.7,286047002.7,N
1503768335.6,286047002.1,N
1503768355.4,286046999.8,N
1503768375.2,286047000.7,N
1503768395.1,286047002.3,N
1503768396.0,286047002.3,N
1503768415.8,286047004.3,P
1503768435.6,286047000.1,N
1503768455.5,286046998.8,N
1503768475.3,286046998.7,N
1503768495.1,286046999.0,N
1503768515.9,286046996.7,N
1503768535.7,286046997.0,N
1503768555.5,286046997.1,N
1503768575.4,286046997.2,N
1503768595.2,286046996.8,N
1503768615.0,286046997.4,N
1503768615.9,286046997.4,N
1503768635.8,286046998.4,N
1503768655.6,286046999.1,N
1503768675.4,286046998.3,N
1503768695.3,286046999.6,N
1503768715.1,286046999.1,N
1503768716.0,286046999.1,N
1503768735.8,286046998.9,N
1503768755.6,286046998.2,N
1503768775.5,286047001.1,N
1503768795.3,286046998.4,N
1503768815.1,286046998.1,N
1503768835.9,286047000.7,N
1503768855.7,286046999.8,N
1503768875.5,286046998.5,N
1503768895.4,286046998.3,N
1503768915.2,286046998.3,N
1503768935.0,286046999.8,N
1503768935.9,286046999.8,N
1503768955.8,286047001.4,N
1503768975.6,286047004.1,P
1503768995.4,286047003.7,N
1503769015.3,286047005.3,N
1503769035.1,286047005.4,N
1503769036.0,286047005.4,N
1503769055.8,286047004.7,N
1503769075.7,286047005.2,N
1503769095.5,286047005.3,N
1503769115.3,286047005.4,N
1503769135.2,286047004.7,N
1503769155.9,286047002.9,N
1503769175.7,286047003.5,N
1503769195.6,286047005.4,P
1503769215.4,286047001.4,N
1503769235.2,286047005.2,P
1503769255.1,286047003.7,N
1503769256.0,286047003.7,N
1503769275.8,286047002.4,N
1503769295.6,286047001.7,N
1503769315.4,286047001.8,N
1503769335.3,286047004.2,N
1503769355.1,286047001.7,N
1503769375.8,286046999.7,N
1503769395.7,286047002.3,N
1503769415.5,286047000.2,N
1503769435.3,286047001.3,N
1503769455.2,286047004.4,N
1503769475.9,286047002.4,N
1503769495.7,286047002.5,N
1503769515.6,286047001.9,N
1503769535.4,286047000.2,N
1503769555.2,286047001.1,N
1503769575.1,286047002.5,N
1503769576.0,286047002.5,N
1503769595.8,286047000.0,N
1503769615.6,286047001.1,N
1503769635.8,286047001.0,N
1503769655.7,286047001.2,N
1503769675.5,286047002.6,N
1503769695.3,286047001.9,N
1503769715.2,286047001.4,N
1503769735.9,286047003.8,N
1503769755.7,286047003.5,N
1503769775.6,286047003.4,N
1503769795.4,286047005.7,P
1503769815.2,286047002.1,N
1503769835.1,286047001.4,N
1503769836.0,286047001.4,N
1503769855.8,286046999.7,N
1503769875.6,286047004.4,N
1503769895.5,286047002.2,N
1503769915.3,286047000.4,N
1503769935.1,286046999.9,N
1503769955.9,286047001.6,N
1503769975.7,286046999.8,N
1503769995.5,286047002.3,N
1503770015.3,286047002.6,N
1503770035.2,286047003.7,N
1503770055.0,286047003.0,N
1503770055.9,286047003.0,N
1503770075.8,286047006.0,P
1503770095.6,286047004.2,N
1503770115.4,286047003.8,N
1503770135.2,286047001.4,N
1503770155.1,286047002.6,N
1503770156.0,286047002.6,N
1503770175.8,286047002.7,N
1503770195.6,286047002.6,N
1503770215.5,286047001.8,N
1503770235.3,286047001.3,N
1503770255.2,286047005.9,P
1503770275.9,286047002.3,N
1503770295.7,286046999.9,N
1503770315.5,286047002.8,N
1503770335.4,286047004.0,N
1503770355.2,286047004.3,N
1503770375.0,286047003.9,N
1503770375.9,286047003.9,N
1503770395.8,286047004.4,N
